Time,TemperatureF,DewpointF,PressureIn,WindDirection,WindDirectionDegrees,WindSpeedMPH,WindSpeedGustMPH,Humidity,HourlyPrecipIn,Conditions,Clouds,dailyrainin,SolarRadiationWatts/m^2,SoftwareType,DateUTC
2013-04-01 00:05:00,38.9,30.6,29.99,NW,317,15.0,16.0,72,0.00,,,0.00,0,Wunderground v.1.15,2013-04-01 05:05:00,
2013-04-01 00:10:00,38.7,30.1,29.99,NW,315,14.0,14.0,71,0.00,,,0.00,0,Wunderground v.1.15,2013-04-01 05:10:00,
2013-04-01 00:15:00,38.6,30.7,30.00,NW,311,14.0,14.0,73,0.00,,,0.00,0,Wunderground v.1.15,2013-04-01 05:15:00,
2013-04-01 00:20:00,38.5,30.6,30.00,NW,315,13.0,16.0,73,0.00,,,0.00,0,Wunderground v.1.15,2013-04-01 05:20:00,
2013-04-01 00:30:00,38.5,30.3,30.00,NW,311,15.0,15.0,72,0.00,,,0.00,0,Wunderground v.1.15,2013-04-01 05:30:00,
2013-04-01 00:35:00,38.5,29.6,30.00,NW,315,15.0,15.0,70,0.00,,,0.00,0,Wunderground v.1.15,2013-04-01 05:35:00,
2013-04-01 00:40:00,38.4,29.1,30.00,NW,318,15.0,15.0,69,0.00,,,0.00,0,Wunderground v.1.15,2013-04-01 05:40:00,
2013-04-01 00:45:00,38.3,29.7,30.01,NW,311,14.0,15.0,71,0.00,,,0.00,0,Wunderground v.1.15,2013-04-01 05:45:00,
2013-04-01 00:50:00,38.2,29.6,30.01,NW,317,13.0,13.0,71,0.00,,,0.00,0,Wunderground v.1.15,2013-04-01 05:50:00,
2013-04-01 01:00:00,38.0,29.8,30.01,NW,316,11.0,12.0,72,0.00,,,0.00,0,Wunderground v.1.15,2013-04-01 06:00:00,
2013-04-01 01:05:00,38.0,29.8,30.01,NNW,329,11.0,12.0,72,0.00,,,0.00,0,Wunderground v.1.15,2013-04-01 06:05:00,
2013-04-01 01:10:00,38.0,28.4,30.01,NW,322,14.0,17.0,68,0.00,,,0.00,0,Wunderground v.1.15,2013-04-01 06:10:00,
2013-04-01 01:15:00,38.1,27.7,30.01,NW,324,15.0,17.0,66,0.00,,,0.00,0,Wunderground v.1.15,2013-04-01 06:15:00,
2013-04-01 01:20:00,38.0,28.4,30.02,NW,319,13.0,13.0,68,0.00,,,0.00,0,Wunderground v.1.15,2013-04-01 06:20:00,
2013-04-01 01:25:00,37.9,29.0,30.03,NW,315,12.0,13.0,70,0.00,,,0.00,0,Wunderground v.1.15,2013-04-01 06:25:00,
2013-04-01 01:35:00,37.7,27.7,30.03,NW,321,15.0,16.0,67,0.00,,,0.00,0,Wunderground v.1.15,2013-04-01 06:35:00,
2013-04-01 01:40:00,37.7,28.1,30.02,NW,314,15.0,15.0,68,0.00,,,0.00,0,Wunderground v.1.15,2013-04-01 06:40:00,
2013-04-01 01:45:00,37.6,28.7,30.03,NW,319,14.0,16.0,70,0.00,,,0.00,0,Wunderground v.1.15,2013-04-01 06:45:00,
2013-04-01 01:50:00,37.5,27.9,30.03,NW,324,14.0,14.0,68,0.00,,,0.00,0,Wunderground v.1.15,2013-04-01 06:50:00,
2013-04-01 01:55:00,37.4,28.2,30.03,NW,312,14.0,17.0,69,0.00,,,0.00,0,Wunderground v.1.15,2013-04-01 06:55:00,
2013-04-01 02:05:00,37.3,28.4,30.04,NW,311,14.0,14.0,70,0.00,,,0.00,0,Wunderground v.1.15,2013-04-01 07:05:00,
2013-04-01 02:10:00,37.1,28.2,30.04,NW,313,13.0,14.0,70,0.00,,,0.00,0,Wunderground v.1.15,2013-04-01 07:10:00,
2013-04-01 02:15:00,37.0,28.5,30.04,NW,313,13.0,14.0,71,0.00,,,0.00,0,Wunderground v.1.15,2013-04-01 07:15:00,
2013-04-01 02:20:00,36.9,28.4,30.04,NW,317,14.0,14.0,71,0.00,,,0.00,0,Wunderground v.1.15,2013-04-01 07:20:00,
2013-04-01 02:25:00,36.8,28.6,30.04,NW,319,13.0,14.0,72,0.00,,,0.00,0,Wunderground v.1.15,2013-04-01 07:25:00,
2013-04-01 02:30:00,36.7,28.5,30.04,NW,314,13.0,17.0,72,0.00,,,0.00,0,Wunderground v.1.15,2013-04-01 07:30:00,
2013-04-01 02:40:00,36.6,28.8,30.04,NW,321,10.0,10.0,73,0.00,,,0.00,0,Wunderground v.1.15,2013-04-01 07:40:00,
2013-04-01 02:45:00,36.5,28.3,30.05,NNW,336,9.0,10.0,72,0.00,,,0.00,0,Wunderground v.1.15,2013-04-01 07:45:00,
2013-04-01 02:50:00,36.3,26.4,30.05,NW,324,9.0,13.0,67,0.00,,,0.00,0,Wunderground v.1.15,2013-04-01 07:50:00,
2013-04-01 02:55:00,36.0,26.1,30.05,NNW,329,9.0,13.0,67,0.00,,,0.00,0,Wunderground v.1.15,2013-04-01 07:55:00,
2013-04-01 03:00:00,35.8,25.9,30.05,NNW,333,9.0,9.0,67,0.00,,,0.00,0,Wunderground v.1.15,2013-04-01 08:00:00,
2013-04-01 03:10:00,35.5,26.0,30.05,NNW,331,8.0,8.0,68,0.00,,,0.00,0,Wunderground v.1.15,2013-04-01 08:10:00,
2013-04-01 03:15:00,35.4,25.9,30.06,NNW,335,8.0,9.0,68,0.00,,,0.00,0,Wunderground v.1.15,2013-04-01 08:15:00,
2013-04-01 03:20:00,35.3,26.1,30.06,NNW,327,8.0,8.0,69,0.00,,,0.00,0,Wunderground v.1.15,2013-04-01 08:20:00,
2013-04-01 03:25:00,35.2,26.4,30.06,NNW,328,8.0,8.0,70,0.00,,,0.00,0,Wunderground v.1.15,2013-04-01 08:25:00,
2013-04-01 03:30:00,35.1,26.6,30.07,NNW,329,7.0,10.0,71,0.00,,,0.00,0,Wunderground v.1.15,2013-04-01 08:30:00,
2013-04-01 03:35:00,35.1,26.3,30.07,NNW,330,8.0,10.0,70,0.00,,,0.00,0,Wunderground v.1.15,2013-04-01 08:35:00,
2013-04-01 03:45:00,34.9,26.1,30.06,NNW,333,7.0,9.0,70,0.00,,,0.00,0,Wunderground v.1.15,2013-04-01 08:45:00,
2013-04-01 03:50:00,34.8,26.0,30.06,NNW,333,8.0,8.0,70,0.00,,,0.00,0,Wunderground v.1.15,2013-04-01 08:50:00,
2013-04-01 03:55:00,34.6,25.8,30.07,NNW,332,7.0,11.0,70,0.00,,,0.00,0,Wunderground v.1.15,2013-04-01 08:55:00,
2013-04-01 04:00:00,34.6,25.5,30.07,NNW,331,7.0,7.0,69,0.00,,,0.00,0,Wunderground v.1.15,2013-04-01 09:00:00,
2013-04-01 04:05:00,34.5,25.7,30.07,NW,326,7.0,7.0,70,0.00,,,0.00,0,Wunderground v.1.15,2013-04-01 09:05:00,
2013-04-01 04:10:00,34.5,25.7,30.07,NNW,333,6.0,6.0,70,0.00,,,0.00,0,Wunderground v.1.15,2013-04-01 09:10:00,
2013-04-01 04:20:00,34.3,26.2,30.08,NNW,328,5.0,5.0,72,0.00,,,0.00,0,Wunderground v.1.15,2013-04-01 09:20:00,
2013-04-01 04:25:00,34.1,26.3,30.08,NNW,333,4.0,5.0,73,0.00,,,0.00,0,Wunderground v.1.15,2013-04-01 09:25:00,
2013-04-01 04:30:00,33.9,26.2,30.08,NNW,333,4.0,4.0,73,0.00,,,0.00,0,Wunderground v.1.15,2013-04-01 09:30:00,
2013-04-01 04:35:00,33.7,26.0,30.08,NNW,329,5.0,9.0,73,0.00,,,0.00,0,Wunderground v.1.15,2013-04-01 09:35:00,
2013-04-01 04:40:00,33.5,25.8,30.08,NNW,330,5.0,8.0,73,0.00,,,0.00,0,Wunderground v.1.15,2013-04-01 09:40:00,
2013-04-01 04:45:00,33.3,25.6,30.09,NNW,331,4.0,8.0,73,0.00,,,0.00,0,Wunderground v.1.15,2013-04-01 09:45:00,
2013-04-01 04:50:00,33.0,25.6,30.09,NNW,331,4.0,4.0,74,0.00,,,0.00,0,Wunderground v.1.15,2013-04-01 09:50:00,
2013-04-01 04:55:00,32.7,25.6,30.09,NNW,331,4.0,4.0,75,0.00,,,0.00,0,Wunderground v.1.15,2013-04-01 09:55:00,
2013-04-01 05:00:00,32.3,25.6,30.09,NNW,327,4.0,9.0,76,0.00,,,0.00,0,Wunderground v.1.15,2013-04-01 10:00:00,
2013-04-01 05:10:00,31.7,25.6,30.09,NW,319,7.0,7.0,78,0.00,,,0.00,0,Wunderground v.1.15,2013-04-01 10:10:00,
2013-04-01 05:15:00,31.4,25.3,30.10,NNW,330,8.0,8.0,78,0.00,,,0.00,0,Wunderground v.1.15,2013-04-01 10:15:00,
2013-04-01 05:20:00,31.2,25.4,30.10,NNW,328,7.0,7.0,79,0.00,,,0.00,0,Wunderground v.1.15,2013-04-01 10:20:00,
2013-04-01 05:25:00,31.0,24.9,30.10,NNW,331,8.0,8.0,78,0.00,,,0.00,0,Wunderground v.1.15,2013-04-01 10:25:00,
2013-04-01 05:30:00,30.8,24.7,30.10,NNW,332,8.0,9.0,78,0.00,,,0.00,0,Wunderground v.1.15,2013-04-01 10:30:00,
2013-04-01 05:35:00,30.8,24.7,30.11,NNW,328,7.0,9.0,78,0.00,,,0.00,0,Wunderground v.1.15,2013-04-01 10:35:00,
2013-04-01 05:40:00,30.6,24.6,30.11,NW,326,7.0,8.0,78,0.00,,,0.00,0,Wunderground v.1.15,2013-04-01 10:40:00,
2013-04-01 05:45:00,30.5,24.5,30.11,NNW,330,7.0,8.0,78,0.00,,,0.00,0,Wunderground v.1.15,2013-04-01 10:45:00,
2013-04-01 05:50:00,30.3,24.6,30.11,NNW,330,7.0,7.0,79,0.00,,,0.00,0,Wunderground v.1.15,2013-04-01 10:50:00,
2013-04-01 06:00:00,30.0,24.6,30.12,NNW,330,5.0,6.0,80,0.00,,,0.00,0,Wunderground v.1.15,2013-04-01 11:00:00,
2013-04-01 06:05:00,29.7,24.3,30.12,NNW,330,5.0,6.0,80,0.00,,,0.00,0,Wunderground v.1.15,2013-04-01 11:05:00,
2013-04-01 06:10:00,29.3,24.2,30.12,NW,313,7.0,9.0,81,0.00,,,0.00,0,Wunderground v.1.15,2013-04-01 11:10:00,
2013-04-01 06:15:00,29.2,24.4,30.13,NW,311,8.0,9.0,82,0.00,,,0.00,0,Wunderground v.1.15,2013-04-01 11:15:00,
2013-04-01 06:20:00,29.0,24.2,30.13,NW,310,8.0,8.0,82,0.00,,,0.00,0,Wunderground v.1.15,2013-04-01 11:20:00,
2013-04-01 06:30:00,28.6,24.4,30.14,NW,311,6.0,6.0,84,0.00,,,0.00,0,Wunderground v.1.15,2013-04-01 11:30:00,
2013-04-01 06:35:00,28.4,24.2,30.14,NW,311,6.0,8.0,84,0.00,,,0.00,0,Wunderground v.1.15,2013-04-01 11:35:00,
2013-04-01 06:40:00,28.4,24.5,30.14,NW,311,7.0,8.0,85,0.00,,,0.00,0,Wunderground v.1.15,2013-04-01 11:40:00,
2013-04-01 06:45:00,28.4,24.5,30.15,NW,312,8.0,9.0,85,0.00,,,0.00,5,Wunderground v.1.15,2013-04-01 11:45:00,
2013-04-01 06:50:00,28.4,24.5,30.15,NW,311,9.0,9.0,85,0.00,,,0.00,7,Wunderground v.1.15,2013-04-01 11:50:00,
2013-04-01 06:55:00,28.5,24.6,30.15,NW,311,9.0,10.0,85,0.00,,,0.00,11,Wunderground v.1.15,2013-04-01 11:55:00,
2013-04-01 07:05:00,28.5,24.6,30.16,NW,311,9.0,10.0,85,0.00,,,0.00,19,Wunderground v.1.15,2013-04-01 12:05:00,
2013-04-01 07:10:00,28.6,24.7,30.16,NW,311,9.0,9.0,85,0.00,,,0.00,25,Wunderground v.1.15,2013-04-01 12:10:00,
2013-04-01 07:15:00,28.7,25.0,30.16,NW,310,10.0,11.0,86,0.00,,,0.00,35,Wunderground v.1.15,2013-04-01 12:15:00,
2013-04-01 07:20:00,28.8,25.1,30.17,NW,312,10.0,11.0,86,0.00,,,0.00,47,Wunderground v.1.15,2013-04-01 12:20:00,
2013-04-01 07:25:00,28.9,25.0,30.17,NW,309,11.0,11.0,85,0.00,,,0.00,62,Wunderground v.1.15,2013-04-01 12:25:00,
2013-04-01 07:35:00,29.2,25.3,30.17,NW,312,11.0,11.0,85,0.00,,,0.00,95,Wunderground v.1.15,2013-04-01 12:35:00,
2013-04-01 07:40:00,29.4,25.2,30.17,NW,313,11.0,13.0,84,0.00,,,0.00,114,Wunderground v.1.15,2013-04-01 12:40:00,
2013-04-01 07:45:00,29.6,25.4,30.18,NW,309,12.0,13.0,84,0.00,,,0.00,130,Wunderground v.1.15,2013-04-01 12:45:00,
2013-04-01 07:50:00,29.7,25.2,30.18,NW,315,13.0,13.0,83,0.00,,,0.00,151,Wunderground v.1.15,2013-04-01 12:50:00,
2013-04-01 07:55:00,29.8,25.3,30.18,NW,319,13.0,13.0,83,0.00,,,0.00,171,Wunderground v.1.15,2013-04-01 12:55:00,
2013-04-01 08:00:00,30.0,25.2,30.18,NW,322,13.0,13.0,82,0.00,,,0.00,190,Wunderground v.1.15,2013-04-01 13:00:00,
2013-04-01 08:05:00,30.2,25.4,30.19,NW,321,12.0,13.0,82,0.00,,,0.00,211,Wunderground v.1.15,2013-04-01 13:05:00,
2013-04-01 08:10:00,30.4,25.3,30.19,NW,322,10.0,11.0,81,0.00,,,0.00,227,Wunderground v.1.15,2013-04-01 13:10:00,
2013-04-01 08:19:00,30.8,25.4,30.19,NW,308,12.0,14.0,80,0.00,,,0.00,260,Wunderground v.1.15,2013-04-01 13:19:00,
2013-04-01 08:24:00,30.8,25.4,30.20,NNW,330,14.0,14.0,80,0.00,,,0.00,278,Wunderground v.1.15,2013-04-01 13:24:00,
2013-04-01 08:29:00,31.0,25.6,30.20,NW,324,12.0,12.0,80,0.00,,,0.00,297,Wunderground v.1.15,2013-04-01 13:29:00,
2013-04-01 08:34:00,31.2,25.1,30.20,NW,326,11.0,12.0,78,0.00,,,0.00,315,Wunderground v.1.15,2013-04-01 13:34:00,
2013-04-01 08:40:00,31.4,25.0,30.20,NW,321,11.0,11.0,77,0.00,,,0.00,332,Wunderground v.1.15,2013-04-01 13:40:00,
2013-04-01 08:45:00,31.6,25.2,30.20,NW,321,11.0,11.0,77,0.00,,,0.00,350,Wunderground v.1.15,2013-04-01 13:45:00,
2013-04-01 08:50:00,31.8,25.1,30.20,NNW,337,10.0,10.0,76,0.00,,,0.00,366,Wunderground v.1.15,2013-04-01 13:50:00,
2013-04-01 08:55:00,32.0,25.3,30.20,NW,323,11.0,11.0,76,0.00,,,0.00,383,Wunderground v.1.15,2013-04-01 13:55:00,
2013-04-01 09:00:00,32.0,25.3,30.20,NW,320,13.0,13.0,76,0.00,,,0.00,403,Wunderground v.1.15,2013-04-01 14:00:00,
2013-04-01 09:09:00,32.6,25.2,30.20,NNW,329,9.0,9.0,74,0.00,,,0.00,438,Wunderground v.1.15,2013-04-01 14:09:00,
2013-04-01 09:14:00,32.9,25.2,30.20,NNW,340,8.0,11.0,73,0.00,,,0.00,457,Wunderground v.1.15,2013-04-01 14:14:00,
2013-04-01 09:20:00,33.0,25.0,30.20,NNW,333,8.0,8.0,72,0.00,,,0.00,469,Wunderground v.1.15,2013-04-01 14:20:00,
2013-04-01 09:25:00,33.2,25.1,30.21,NNW,328,8.0,11.0,72,0.00,,,0.00,485,Wunderground v.1.15,2013-04-01 14:25:00,
2013-04-01 09:30:00,33.4,25.0,30.21,NNW,331,7.0,7.0,71,0.00,,,0.00,501,Wunderground v.1.15,2013-04-01 14:30:00,
2013-04-01 09:35:00,33.5,24.8,30.21,NW,320,8.0,8.0,70,0.00,,,0.00,520,Wunderground v.1.15,2013-04-01 14:35:00,
2013-04-01 09:40:00,33.6,25.5,30.21,NW,316,10.0,10.0,72,0.00,,,0.00,540,Wunderground v.1.15,2013-04-01 14:40:00,
2013-04-01 09:49:00,33.9,24.8,30.21,NW,320,9.0,9.0,69,0.00,,,0.00,568,Wunderground v.1.15,2013-04-01 14:49:00,
2013-04-01 09:54:00,34.4,26.0,30.21,NW,323,8.0,9.0,71,0.00,,,0.00,584,Wunderground v.1.15,2013-04-01 14:54:00,
2013-04-01 09:59:00,34.3,24.8,30.21,NNW,329,9.0,9.0,68,0.00,,,0.00,601,Wunderground v.1.15,2013-04-01 14:59:00,
2013-04-01 10:05:00,34.4,25.6,30.22,NNW,340,9.0,9.0,70,0.00,,,0.00,613,Wunderground v.1.15,2013-04-01 15:05:00,
2013-04-01 10:10:00,35.0,25.1,30.22,NNW,336,7.0,9.0,67,0.00,,,0.00,649,Wunderground v.1.15,2013-04-01 15:10:00,
2013-04-01 10:20:00,35.3,25.1,30.21,NNW,330,8.0,8.0,66,0.00,,,0.00,735,Wunderground v.1.15,2013-04-01 15:20:00,
2013-04-01 10:25:00,35.4,25.5,30.21,NNW,336,8.0,8.0,67,0.00,,,0.00,483,Wunderground v.1.15,2013-04-01 15:25:00,
2013-04-01 10:30:00,35.1,24.9,30.22,NW,325,9.0,15.0,66,0.00,,,0.00,710,Wunderground v.1.15,2013-04-01 15:30:00,
2013-04-01 10:35:00,35.1,24.5,30.22,NNW,327,11.0,15.0,65,0.00,,,0.00,763,Wunderground v.1.15,2013-04-01 15:35:00,
2013-04-01 10:40:00,35.5,24.1,30.22,NNW,327,11.0,11.0,63,0.00,,,0.00,786,Wunderground v.1.15,2013-04-01 15:40:00,
2013-04-01 10:45:00,35.9,25.3,30.22,NW,319,10.0,11.0,65,0.00,,,0.00,272,Wunderground v.1.15,2013-04-01 15:45:00,
2013-04-01 10:55:00,35.9,24.1,30.22,NW,322,12.0,17.0,62,0.00,,,0.00,867,Wunderground v.1.15,2013-04-01 15:55:00,
2013-04-01 11:00:00,36.2,23.6,30.22,NW,318,11.0,14.0,60,0.00,,,0.00,816,Wunderground v.1.15,2013-04-01 16:00:00,
2013-04-01 11:05:00,36.8,23.8,30.22,NW,313,12.0,15.0,59,0.00,,,0.00,828,Wunderground v.1.15,2013-04-01 16:05:00,
2013-04-01 11:10:00,37.1,24.5,30.22,NW,312,12.0,12.0,60,0.00,,,0.00,800,Wunderground v.1.15,2013-04-01 16:10:00,
2013-04-01 11:15:00,37.3,24.7,30.22,NW,306,13.0,17.0,60,0.00,,,0.00,789,Wunderground v.1.15,2013-04-01 16:15:00,
2013-04-01 11:25:00,37.8,23.9,30.22,NW,311,12.0,14.0,57,0.00,,,0.00,803,Wunderground v.1.15,2013-04-01 16:25:00,
2013-04-01 11:30:00,37.5,23.6,30.22,NW,326,12.0,12.0,57,0.00,,,0.00,824,Wunderground v.1.15,2013-04-01 16:30:00,
2013-04-01 11:35:00,37.6,24.1,30.22,North,355,13.0,25.0,58,0.00,,,0.00,817,Wunderground v.1.15,2013-04-01 16:35:00,
2013-04-01 11:40:00,37.9,23.6,30.22,NNW,338,14.0,14.0,56,0.00,,,0.00,823,Wunderground v.1.15,2013-04-01 16:40:00,
2013-04-01 11:45:00,38.1,22.5,30.22,NW,319,12.0,14.0,53,0.00,,,0.00,833,Wunderground v.1.15,2013-04-01 16:45:00,
2013-04-01 11:50:00,38.6,23.8,30.22,NNW,337,11.0,11.0,55,0.00,,,0.00,844,Wunderground v.1.15,2013-04-01 16:50:00,
2013-04-01 12:00:00,38.9,21.3,30.22,NNW,348,11.0,11.0,49,0.00,,,0.00,851,Wunderground v.1.15,2013-04-01 17:00:00,
2013-04-01 12:05:00,39.2,22.1,30.22,NNW,333,10.0,11.0,50,0.00,,,0.00,858,Wunderground v.1.15,2013-04-01 17:05:00,
2013-04-01 12:10:00,39.4,23.7,30.22,NW,315,12.0,13.0,53,0.00,,,0.00,861,Wunderground v.1.15,2013-04-01 17:10:00,
2013-04-01 12:19:00,39.3,22.7,30.22,North,360,14.0,14.0,51,0.00,,,0.00,865,Wunderground v.1.15,2013-04-01 17:19:00,
2013-04-01 12:24:00,39.2,21.6,30.22,NW,315,12.0,18.0,49,0.00,,,0.00,877,Wunderground v.1.15,2013-04-01 17:24:00,
2013-04-01 12:30:00,39.3,23.1,30.22,NNW,331,13.0,13.0,52,0.00,,,0.00,886,Wunderground v.1.15,2013-04-01 17:30:00,
2013-04-01 12:35:00,39.6,21.0,30.22,NW,321,11.0,13.0,47,0.00,,,0.00,884,Wunderground v.1.15,2013-04-01 17:35:00,
2013-04-01 12:40:00,39.7,22.1,30.22,NNW,333,11.0,11.0,49,0.00,,,0.00,886,Wunderground v.1.15,2013-04-01 17:40:00,
2013-04-01 12:45:00,39.7,21.6,30.22,NW,321,10.0,12.0,48,0.00,,,0.00,882,Wunderground v.1.15,2013-04-01 17:45:00,
2013-04-01 12:50:00,40.0,23.3,30.22,NW,325,13.0,15.0,51,0.00,,,0.00,888,Wunderground v.1.15,2013-04-01 17:50:00,
2013-04-01 12:55:00,40.4,22.7,30.22,NNW,336,12.0,15.0,49,0.00,,,0.00,886,Wunderground v.1.15,2013-04-01 17:55:00,
2013-04-01 13:04:00,40.1,21.5,30.21,NW,304,14.0,19.0,47,0.00,,,0.00,893,Wunderground v.1.15,2013-04-01 18:04:00,
2013-04-01 13:09:00,40.0,21.9,30.22,NW,313,16.0,18.0,48,0.00,,,0.00,893,Wunderground v.1.15,2013-04-01 18:09:00,
2013-04-01 13:14:00,39.8,20.2,30.22,NW,308,16.0,18.0,45,0.00,,,0.00,891,Wunderground v.1.15,2013-04-01 18:14:00,
2013-04-01 13:19:00,39.8,21.7,30.21,NNW,328,16.0,19.0,48,0.00,,,0.00,886,Wunderground v.1.15,2013-04-01 18:19:00,
2013-04-01 13:24:00,40.2,21.6,30.22,NW,317,14.0,19.0,47,0.00,,,0.00,886,Wunderground v.1.15,2013-04-01 18:24:00,
2013-04-01 13:29:00,40.7,23.0,30.21,NW,307,13.0,17.0,49,0.00,,,0.00,877,Wunderground v.1.15,2013-04-01 18:29:00,
2013-04-01 13:35:00,40.9,21.7,30.21,NW,309,14.0,22.0,46,0.00,,,0.00,881,Wunderground v.1.15,2013-04-01 18:35:00,
2013-04-01 13:40:00,41.1,22.9,30.21,NNW,344,12.0,12.0,48,0.00,,,0.00,872,Wunderground v.1.15,2013-04-01 18:40:00,
2013-04-01 13:45:00,41.4,21.1,30.21,WNW,297,12.0,13.0,44,0.00,,,0.00,877,Wunderground v.1.15,2013-04-01 18:45:00,
2013-04-01 13:50:00,41.2,22.0,30.21,NW,308,15.0,18.0,46,0.00,,,0.00,868,Wunderground v.1.15,2013-04-01 18:50:00,
2013-04-01 13:55:00,41.6,20.7,30.21,NW,320,14.0,18.0,43,0.00,,,0.00,875,Wunderground v.1.15,2013-04-01 18:55:00,
2013-04-01 14:00:00,41.6,20.7,30.21,NW,315,13.0,13.0,43,0.00,,,0.00,867,Wunderground v.1.15,2013-04-01 19:00:00,
2013-04-01 14:09:00,41.0,21.8,30.21,NW,305,18.0,18.0,46,0.00,,,0.00,858,Wunderground v.1.15,2013-04-01 19:09:00,
2013-04-01 14:15:00,41.3,19.9,30.21,NW,318,17.0,18.0,42,0.00,,,0.00,856,Wunderground v.1.15,2013-04-01 19:15:00,
2013-04-01 14:20:00,41.6,20.2,30.21,NW,311,16.0,16.0,42,0.00,,,0.00,849,Wunderground v.1.15,2013-04-01 19:20:00,
2013-04-01 14:25:00,41.3,21.0,30.21,NW,308,17.0,17.0,44,0.00,,,0.00,840,Wunderground v.1.15,2013-04-01 19:25:00,
2013-04-01 14:30:00,41.6,22.3,30.21,NNW,331,15.0,15.0,46,0.00,,,0.00,830,Wunderground v.1.15,2013-04-01 19:30:00,
2013-04-01 14:35:00,42.2,21.8,30.20,NW,319,11.0,15.0,44,0.00,,,0.00,823,Wunderground v.1.15,2013-04-01 19:35:00,
2013-04-01 14:45:00,42.7,20.6,30.21,NW,306,11.0,13.0,41,0.00,,,0.00,814,Wunderground v.1.15,2013-04-01 19:45:00,
2013-04-01 14:50:00,42.7,21.7,30.21,NNW,329,12.0,12.0,43,0.00,,,0.00,802,Wunderground v.1.15,2013-04-01 19:50:00,
2013-04-01 14:55:00,42.3,19.7,30.21,WNW,299,14.0,18.0,40,0.00,,,0.00,796,Wunderground v.1.15,2013-04-01 19:55:00,
2013-04-01 15:00:00,42.0,20.5,30.21,NW,323,14.0,14.0,42,0.00,,,0.00,784,Wunderground v.1.15,2013-04-01 20:00:00,
2013-04-01 15:05:00,42.6,20.5,30.21,NW,320,12.0,14.0,41,0.00,,,0.00,773,Wunderground v.1.15,2013-04-01 20:05:00,
2013-04-01 15:15:00,42.6,19.3,30.20,NW,315,12.0,19.0,39,0.00,,,0.00,763,Wunderground v.1.15,2013-04-01 20:15:00,
2013-04-01 15:20:00,42.3,19.7,30.20,NW,316,16.0,16.0,40,0.00,,,0.00,745,Wunderground v.1.15,2013-04-01 20:20:00,
2013-04-01 15:25:00,42.4,18.6,30.21,NW,309,16.0,16.0,38,0.00,,,0.00,737,Wunderground v.1.15,2013-04-01 20:25:00,
2013-04-01 15:30:00,42.5,21.0,30.20,NNW,342,14.0,14.0,42,0.00,,,0.00,721,Wunderground v.1.15,2013-04-01 20:30:00,
2013-04-01 15:35:00,43.1,22.1,30.20,NNW,329,12.0,14.0,43,0.00,,,0.00,710,Wunderground v.1.15,2013-04-01 20:35:00,
2013-04-01 15:40:00,43.1,19.8,30.20,NNW,343,12.0,12.0,39,0.00,,,0.00,698,Wunderground v.1.15,2013-04-01 20:40:00,
2013-04-01 15:50:00,42.7,20.0,30.20,NW,321,14.0,15.0,40,0.00,,,0.00,671,Wunderground v.1.15,2013-04-01 20:50:00,
2013-04-01 15:55:00,42.8,20.1,30.20,NW,315,14.0,15.0,40,0.00,,,0.00,663,Wunderground v.1.15,2013-04-01 20:55:00,
2013-04-01 16:00:00,42.8,19.5,30.20,NW,306,14.0,17.0,39,0.00,,,0.00,647,Wunderground v.1.15,2013-04-01 21:00:00,
2013-04-01 16:05:00,42.7,20.0,30.20,NW,319,16.0,17.0,40,0.00,,,0.00,635,Wunderground v.1.15,2013-04-01 21:05:00,
2013-04-01 16:10:00,43.0,19.1,30.20,NW,311,12.0,12.0,38,0.00,,,0.00,621,Wunderground v.1.15,2013-04-01 21:10:00,
2013-04-01 16:20:00,42.8,18.9,30.20,NW,326,15.0,18.0,38,0.00,,,0.00,591,Wunderground v.1.15,2013-04-01 21:20:00,
2013-04-01 16:25:00,42.7,17.6,30.20,NW,323,14.0,18.0,36,0.00,,,0.00,575,Wunderground v.1.15,2013-04-01 21:25:00,
2013-04-01 16:30:00,43.0,20.9,30.21,NW,316,15.0,15.0,41,0.00,,,0.00,557,Wunderground v.1.15,2013-04-01 21:30:00,
2013-04-01 16:35:00,43.2,20.5,30.21,NW,325,11.0,15.0,40,0.00,,,0.00,543,Wunderground v.1.15,2013-04-01 21:35:00,
2013-04-01 16:40:00,43.1,19.2,30.21,WNW,301,12.0,13.0,38,0.00,,,0.00,529,Wunderground v.1.15,2013-04-01 21:40:00,
2013-04-01 16:45:00,42.8,17.7,30.21,NW,317,14.0,15.0,36,0.00,,,0.00,510,Wunderground v.1.15,2013-04-01 21:45:00,
2013-04-01 16:55:00,42.7,20.0,30.20,NW,314,16.0,19.0,40,0.00,,,0.00,483,Wunderground v.1.15,2013-04-01 21:55:00,
2013-04-01 17:00:00,42.5,19.3,30.21,NW,309,16.0,16.0,39,0.00,,,0.00,461,Wunderground v.1.15,2013-04-01 22:00:00,
2013-04-01 17:05:00,42.6,20.5,30.21,NNW,327,16.0,16.0,41,0.00,,,0.00,450,Wunderground v.1.15,2013-04-01 22:05:00,
2013-04-01 17:10:00,42.5,18.6,30.21,NW,305,15.0,15.0,38,0.00,,,0.00,427,Wunderground v.1.15,2013-04-01 22:10:00,
2013-04-01 17:15:00,42.6,21.1,30.21,NW,320,14.0,15.0,42,0.00,,,0.00,413,Wunderground v.1.15,2013-04-01 22:15:00,
2013-04-01 17:25:00,42.5,19.8,30.21,NW,312,15.0,18.0,40,0.00,,,0.00,380,Wunderground v.1.15,2013-04-01 22:25:00,
2013-04-01 17:30:00,42.3,19.1,30.21,NNW,331,15.0,15.0,39,0.00,,,0.00,362,Wunderground v.1.15,2013-04-01 22:30:00,
2013-04-01 17:35:00,42.3,20.2,30.21,NW,319,14.0,15.0,41,0.00,,,0.00,348,Wunderground v.1.15,2013-04-01 22:35:00,
2013-04-01 17:40:00,42.3,19.7,30.21,NW,320,16.0,19.0,40,0.00,,,0.00,325,Wunderground v.1.15,2013-04-01 22:40:00,
2013-04-01 17:45:00,42.0,19.4,30.21,NW,319,16.0,19.0,40,0.00,,,0.00,306,Wunderground v.1.15,2013-04-01 22:45:00,
2013-04-01 17:50:00,41.9,19.3,30.21,NW,322,14.0,14.0,40,0.00,,,0.00,288,Wunderground v.1.15,2013-04-01 22:50:00,
2013-04-01 18:00:00,42.0,21.1,30.21,NW,322,13.0,13.0,43,0.00,,,0.00,255,Wunderground v.1.15,2013-04-01 23:00:00,
2013-04-01 18:05:00,42.0,20.5,30.21,NW,322,11.0,15.0,42,0.00,,,0.00,229,Wunderground v.1.15,2013-04-01 23:05:00,
2013-04-01 18:10:00,41.8,19.2,30.21,NW,316,13.0,13.0,40,0.00,,,0.00,207,Wunderground v.1.15,2013-04-01 23:10:00,
2013-04-01 18:15:00,41.7,19.7,30.21,NW,311,15.0,17.0,41,0.00,,,0.00,185,Wunderground v.1.15,2013-04-01 23:15:00,
2013-04-01 18:20:00,41.4,19.4,30.21,NW,318,17.0,19.0,41,0.00,,,0.00,162,Wunderground v.1.15,2013-04-01 23:20:00,
2013-04-01 18:30:00,41.1,19.7,30.22,NW,314,15.0,15.0,42,0.00,,,0.00,121,Wunderground v.1.15,2013-04-01 23:30:00,
2013-04-01 18:35:00,40.9,19.5,30.22,NW,322,15.0,15.0,42,0.00,,,0.00,105,Wunderground v.1.15,2013-04-01 23:35:00,
2013-04-01 18:40:00,40.7,20.5,30.22,NW,323,14.0,14.0,44,0.00,,,0.00,88,Wunderground v.1.15,2013-04-01 23:40:00,
2013-04-01 18:45:00,40.6,19.8,30.22,NW,319,14.0,14.0,43,0.00,,,0.00,70,Wunderground v.1.15,2013-04-01 23:45:00,
2013-04-01 18:50:00,40.4,19.6,30.22,NW,314,13.0,16.0,43,0.00,,,0.00,54,Wunderground v.1.15,2013-04-01 23:50:00,
2013-04-01 18:55:00,40.1,19.4,30.22,NW,319,13.0,16.0,43,0.00,,,0.00,42,Wunderground v.1.15,2013-04-01 23:55:00,
2013-04-01 19:04:00,39.7,21.1,30.22,NW,318,12.0,13.0,47,0.00,,,0.00,23,Wunderground v.1.15,2013-04-02 00:04:00,
2013-04-01 19:09:00,39.4,20.3,30.22,NW,318,10.0,13.0,46,0.00,,,0.00,16,Wunderground v.1.15,2013-04-02 00:09:00,
2013-04-01 19:14:00,39.1,20.5,30.22,NW,317,9.0,13.0,47,0.00,,,0.00,12,Wunderground v.1.15,2013-04-02 00:14:00,
2013-04-01 19:20:00,38.8,20.8,30.22,NW,319,10.0,12.0,48,0.00,,,0.00,11,Wunderground v.1.15,2013-04-02 00:20:00,
2013-04-01 19:25:00,38.4,21.4,30.22,NW,315,10.0,12.0,50,0.00,,,0.00,7,Wunderground v.1.15,2013-04-02 00:25:00,
2013-04-01 19:30:00,38.0,21.0,30.23,NW,319,10.0,10.0,50,0.00,,,0.00,0,Wunderground v.1.15,2013-04-02 00:30:00,
2013-04-01 19:40:00,37.4,21.4,30.22,NW,317,9.0,9.0,52,0.00,,,0.00,0,Wunderground v.1.15,2013-04-02 00:40:00,
2013-04-01 19:45:00,37.0,21.9,30.22,NW,317,8.0,9.0,54,0.00,,,0.00,0,Wunderground v.1.15,2013-04-02 00:45:00,
2013-04-01 19:50:00,36.6,21.1,30.22,NW,318,7.0,9.0,53,0.00,,,0.00,0,Wunderground v.1.15,2013-04-02 00:50:00,
2013-04-01 19:55:00,36.3,21.2,30.23,NW,317,8.0,9.0,54,0.00,,,0.00,0,Wunderground v.1.15,2013-04-02 00:55:00,
2013-04-01 20:00:00,36.0,21.8,30.23,NW,317,7.0,7.0,56,0.00,,,0.00,0,Wunderground v.1.15,2013-04-02 01:00:00,
2013-04-01 20:05:00,35.5,21.8,30.23,NW,317,7.0,7.0,57,0.00,,,0.00,0,Wunderground v.1.15,2013-04-02 01:05:00,
2013-04-01 20:10:00,35.2,21.5,30.23,NW,318,7.0,7.0,57,0.00,,,0.00,0,Wunderground v.1.15,2013-04-02 01:10:00,
2013-04-01 20:15:00,35.0,21.7,30.23,NW,318,7.0,7.0,58,0.00,,,0.00,0,Wunderground v.1.15,2013-04-02 01:15:00,
2013-04-01 20:20:00,34.8,21.9,30.23,NW,318,6.0,6.0,59,0.00,,,0.00,0,Wunderground v.1.15,2013-04-02 01:20:00,
2013-04-01 20:25:00,34.6,22.1,30.24,NW,318,6.0,6.0,60,0.00,,,0.00,0,Wunderground v.1.15,2013-04-02 01:25:00,
2013-04-01 20:30:00,34.3,21.8,30.24,NW,318,5.0,5.0,60,0.00,,,0.00,0,Wunderground v.1.15,2013-04-02 01:30:00,
2013-04-01 20:35:00,34.1,21.7,30.24,NW,318,4.0,5.0,60,0.00,,,0.00,0,Wunderground v.1.15,2013-04-02 01:35:00,
2013-04-01 20:45:00,33.6,21.6,30.24,NW,318,3.0,4.0,61,0.00,,,0.00,0,Wunderground v.1.15,2013-04-02 01:45:00,
2013-04-01 20:50:00,33.5,21.9,30.24,NW,318,3.0,4.0,62,0.00,,,0.00,0,Wunderground v.1.15,2013-04-02 01:50:00,
2013-04-01 20:55:00,33.2,22.0,30.24,NW,318,3.0,4.0,63,0.00,,,0.00,0,Wunderground v.1.15,2013-04-02 01:55:00,
2013-04-01 21:00:00,33.0,21.8,30.24,NW,318,3.0,3.0,63,0.00,,,0.00,0,Wunderground v.1.15,2013-04-02 02:00:00,
2013-04-01 21:09:00,32.6,21.4,30.25,NW,318,3.0,3.0,63,0.00,,,0.00,0,Wunderground v.1.15,2013-04-02 02:09:00,
2013-04-01 21:15:00,32.4,21.6,30.24,NW,318,3.0,4.0,64,0.00,,,0.00,0,Wunderground v.1.15,2013-04-02 02:15:00,
2013-04-01 21:20:00,32.2,21.7,30.24,NW,318,3.0,4.0,65,0.00,,,0.00,0,Wunderground v.1.15,2013-04-02 02:20:00,
2013-04-01 21:25:00,31.9,21.8,30.24,NW,318,3.0,4.0,66,0.00,,,0.00,0,Wunderground v.1.15,2013-04-02 02:25:00,
2013-04-01 21:30:00,31.7,21.6,30.25,NW,318,3.0,3.0,66,0.00,,,0.00,0,Wunderground v.1.15,2013-04-02 02:30:00,
2013-04-01 21:35:00,31.4,21.7,30.25,NW,318,3.0,3.0,67,0.00,,,0.00,0,Wunderground v.1.15,2013-04-02 02:35:00,
2013-04-01 21:40:00,31.2,21.5,30.25,NW,318,3.0,3.0,67,0.00,,,0.00,0,Wunderground v.1.15,2013-04-02 02:40:00,
2013-04-01 21:45:00,31.0,21.3,30.25,NW,318,2.0,3.0,67,0.00,,,0.00,0,Wunderground v.1.15,2013-04-02 02:45:00,
2013-04-01 21:54:00,30.6,21.3,30.25,NW,318,2.0,4.0,68,0.00,,,0.00,0,Wunderground v.1.15,2013-04-02 02:54:00,
2013-04-01 21:59:00,30.3,21.3,30.25,NW,318,3.0,3.0,69,0.00,,,0.00,0,Wunderground v.1.15,2013-04-02 02:59:00,
2013-04-01 22:05:00,30.2,21.2,30.26,NW,318,3.0,3.0,69,0.00,,,0.00,0,Wunderground v.1.15,2013-04-02 03:05:00,
2013-04-01 22:10:00,29.9,21.3,30.26,NW,318,3.0,3.0,70,0.00,,,0.00,0,Wunderground v.1.15,2013-04-02 03:10:00,
2013-04-01 22:15:00,29.8,21.2,30.26,NW,318,3.0,3.0,70,0.00,,,0.00,0,Wunderground v.1.15,2013-04-02 03:15:00,
2013-04-01 22:25:00,29.6,21.7,30.26,NW,318,3.0,4.0,72,0.00,,,0.00,0,Wunderground v.1.15,2013-04-02 03:25:00,
2013-04-01 22:30:00,29.6,22.0,30.26,NW,318,3.0,3.0,73,0.00,,,0.00,0,Wunderground v.1.15,2013-04-02 03:30:00,
2013-04-01 22:35:00,29.5,21.6,30.26,NW,318,3.0,3.0,72,0.00,,,0.00,0,Wunderground v.1.15,2013-04-02 03:35:00,
2013-04-01 22:40:00,29.5,21.9,30.26,NW,318,3.0,3.0,73,0.00,,,0.00,0,Wunderground v.1.15,2013-04-02 03:40:00,
2013-04-01 22:45:00,29.4,21.5,30.26,NW,318,3.0,3.0,72,0.00,,,0.00,0,Wunderground v.1.15,2013-04-02 03:45:00,
2013-04-01 22:55:00,29.1,21.2,30.26,NW,318,4.0,4.0,72,0.00,,,0.00,0,Wunderground v.1.15,2013-04-02 03:55:00,
2013-04-01 23:00:00,29.0,21.4,30.26,NW,318,4.0,4.0,73,0.00,,,0.00,0,Wunderground v.1.15,2013-04-02 04:00:00,
2013-04-01 23:05:00,29.1,21.5,30.27,NW,318,4.0,6.0,73,0.00,,,0.00,0,Wunderground v.1.15,2013-04-02 04:05:00,
2013-04-01 23:10:00,29.1,21.5,30.26,NW,318,5.0,5.0,73,0.00,,,0.00,0,Wunderground v.1.15,2013-04-02 04:10:00,
2013-04-01 23:15:00,29.2,21.6,30.26,NW,319,5.0,5.0,73,0.00,,,0.00,0,Wunderground v.1.15,2013-04-02 04:15:00,
2013-04-01 23:20:00,29.4,22.1,30.27,NW,319,5.0,5.0,74,0.00,,,0.00,0,Wunderground v.1.15,2013-04-02 04:20:00,
2013-04-01 23:30:00,29.5,21.9,30.27,NW,319,4.0,4.0,73,0.00,,,0.00,0,Wunderground v.1.15,2013-04-02 04:30:00,
2013-04-01 23:35:00,29.4,22.1,30.28,NW,319,3.0,4.0,74,0.00,,,0.00,0,Wunderground v.1.15,2013-04-02 04:35:00,
2013-04-01 23:40:00,29.3,22.0,30.27,NW,319,3.0,3.0,74,0.00,,,0.00,0,Wunderground v.1.15,2013-04-02 04:40:00,
2013-04-01 23:45:00,29.2,21.9,30.27,NW,319,3.0,3.0,74,0.00,,,0.00,0,Wunderground v.1.15,2013-04-02 04:45:00,
2013-04-01 23:50:00,29.0,22.1,30.28,NW,319,3.0,4.0,75,0.00,,,0.00,0,Wunderground v.1.15,2013-04-02 04:50:00,